GW3011 Weather Reports


time (UTC)temp
C
wind
direction
speed
KPH
gust
KPH
rain 1hr
cm
rain 24hr
cm
rain mn
cm
humidity
%
barometer
mb
20260904213832 30 171 0.0 0.0 0.00 0.00 0.00 50 1009.6
20260904213327 30 152 0.0 0.0 0.00 0.00 0.00 50 1009.6
20260904212824 30 186 0.0 0.0 0.00 0.00 0.00 51 1009.4
20260904212323 30 162 0.0 0.0 0.00 0.00 0.00 51 1009.5
20260904211819 30 111 0.0 0.0 0.00 0.00 0.00 51 1009.4
20260904211314 30 226 0.0 0.0 0.00 0.00 0.00 51 1009.5
20260904210808 30 155 0.0 0.0 0.00 0.00 0.00 50 1009.4
20260904210302 31 199 0.0 0.0 0.00 0.00 0.00 49 1009.9
20260904205759 30 124 0.0 0.0 0.00 0.00 0.00 50 1009.8
20260904205254 30 176 0.0 0.0 0.00 0.00 0.00 51 1010.0
20260904204751 30 187 0.0 0.0 0.00 0.00 0.00 50 1009.8
20260904204247 30 217 0.0 0.0 0.00 0.00 0.00 51 1009.7
20260904203743 30 163 0.0 0.0 0.00 0.00 0.00 52 1010.1
20260904203239 30 182 0.0 0.0 0.00 0.00 0.00 50 1009.9
20260904202734 30 194 0.0 1.6 0.00 0.00 0.00 49 1009.7
20260904202230 30 203 0.0 0.0 0.00 0.00 0.00 49 1009.9
20260904201725 30 197 0.0 0.0 0.00 0.00 0.00 50 1009.8
20260904201220 30 185 0.0 0.0 0.00 0.00 0.00 51 1010.0
20260904200715 30 135 0.0 0.0 0.00 0.00 0.00 51 1010.0
20260904200209 30 201 0.0 0.0 0.00 0.00 0.00 51 1010.0
20260904195708 31 208 0.0 0.0 0.00 0.00 0.00 49 1010.3
20260904195201 30 181 0.0 0.0 0.00 0.00 0.00 49 1010.3
20260904194701 30 158 0.0 0.0 0.00 0.00 0.00 51 1010.3
20260904194155 30 192 0.0 0.0 0.00 0.00 0.00 52 1010.3
20260904193651 30 217 0.0 0.0 0.00 0.00 0.00 51 1010.3
20260904193148 30 220 0.0 0.0 0.00 0.00 0.00 51 1010.4
20260904192647 30 134 0.0 0.0 0.00 0.00 0.00 51 1010.4
20260904192143 30 186 0.0 0.0 0.00 0.00 0.00 50 1010.4
20260904191639 30 212 0.0 0.0 0.00 0.00 0.00 50 1010.3
20260904191136 30 234 0.0 0.0 0.00 0.00 0.00 50 1010.5
20260904190632 30 205 0.0 0.0 0.00 0.00 0.00 51 1010.5
20260904190127 30 167 0.0 0.0 0.00 0.00 0.00 51 1010.7
20260904185623 30 173 0.0 0.0 0.00 0.00 0.00 51 1010.5
20260904185118 29 208 0.0 0.0 0.00 0.00 0.00 51 1010.7
20260904184617 30 145 0.0 0.0 0.00 0.00 0.00 51 1011.0
20260904184112 30 142 0.0 0.0 0.00 0.00 0.00 51 1010.5
20260904183608 29 215 0.0 0.0 0.00 0.00 0.00 51 1010.6
20260904183103 30 194 0.0 0.0 0.00 0.00 0.00 51 1011.1
20260904182558 30 174 0.0 0.0 0.00 0.00 0.00 50 1010.7
20260904182052 30 155 0.0 0.0 0.00 0.00 0.00 52 1010.7
20260904181549 30 250 0.0 0.0 0.00 0.00 0.00 51 1010.8
20260904181048 30 141 0.0 0.0 0.00 0.00 0.00 51 1010.6
20260904180543 29 189 0.0 0.0 0.00 0.00 0.00 53 1010.5
20260904180038 30 204 0.0 0.0 0.00 0.00 0.00 53 1010.7
20260904175532 29 177 0.0 0.0 0.00 0.00 0.00 54 1010.8
20260904175030 28 198 0.0 0.0 0.00 0.00 0.00 55 1010.8
20260904174526 30 215 0.0 0.0 0.00 0.00 0.00 54 1010.6
20260904174023 30 153 0.0 0.0 0.00 0.00 0.00 53 1010.6
20260904173522 30 190 0.0 0.0 0.00 0.00 0.00 53 1010.6
20260904173018 30 176 0.0 0.0 0.00 0.00 0.00 53 1010.7
20260904172514 30 98 0.0 0.0 0.00 0.00 0.00 53 1010.7
20260904172013 30 177 0.0 0.0 0.00 0.00 0.00 54 1010.7
20260904171508 29 228 0.0 0.0 0.00 0.00 0.00 55 1010.6
20260904171004 28 196 0.0 0.0 0.00 0.00 0.00 57 1010.8
20260904170459 29 184 0.0 0.0 0.00 0.00 0.00 56 1010.8
20260904165954 29 152 0.0 0.0 0.00 0.00 0.00 56 1010.6
20260904165453 28 184 0.0 0.0 0.00 0.00 0.00 57 1010.8
20260904164953 29 192 0.0 0.0 0.00 0.00 0.00 57 1010.7
20260904164448 30 229 0.0 0.0 0.00 0.00 0.00 52 1010.7
20260904163944 29 223 0.0 0.0 0.00 0.00 0.00 56 1010.8
20260904163438 28 186 0.0 0.0 0.00 0.00 0.00 57 1010.9
20260904162938 28 197 0.0 0.0 0.00 0.00 0.00 57 1010.8
20260904162433 29 227 0.0 0.0 0.00 0.00 0.00 56 1010.7
20260904161928 28 166 0.0 0.0 0.00 0.00 0.00 58 1010.7
20260904161423 29 208 0.0 0.0 0.00 0.00 0.00 56 1010.6
20260904160920 29 220 0.0 0.0 0.00 0.00 0.00 57 1010.9
20260904160414 30 197 0.0 0.0 0.00 0.00 0.00 56 1010.7
20260904155909 29 203 0.0 0.0 0.00 0.00 0.00 56 1010.8
20260904155404 29 228 0.0 0.0 0.00 0.00 0.00 57 1011.0
20260904154902 28 230 0.0 0.0 0.00 0.00 0.00 57 1010.9
20260904154357 29 215 0.0 0.0 0.00 0.00 0.00 56 1011.0
20260904153853 29 176 0.0 0.0 0.00 0.00 0.00 57 1011.0
20260904153348 29 199 0.0 0.0 0.00 0.00 0.00 57 1011.1
20260904152845 29 192 0.0 0.0 0.00 0.00 0.00 58 1011.1
20260904152344 28 226 0.0 0.0 0.00 0.00 0.00 58 1011.3
20260904151839 28 201 0.0 0.0 0.00 0.00 0.00 57 1011.2
20260904151338 29 205 0.0 0.0 0.00 0.00 0.00 58 1011.2
20260904150834 28 219 0.0 0.0 0.00 0.00 0.00 63 1011.4
20260904150329 28 128 0.0 0.0 0.00 0.00 0.00 63 1011.3
20260904145826 28 193 0.0 0.0 0.00 0.00 0.00 63 1011.3
20260904145324 28 197 0.0 0.0 0.00 0.00 0.00 63 1011.5
20260904144819 28 163 0.0 0.0 0.00 0.00 0.00 62 1011.3
20260904144314 28 216 0.0 0.0 0.00 0.00 0.00 63 1011.2
20260904143809 28 223 0.0 0.0 0.00 0.00 0.00 63 1011.3
20260904143306 28 235 0.0 0.0 0.00 0.00 0.00 64 1011.1
20260904142802 28 271 0.0 0.0 0.00 0.00 0.00 65 1011.2
20260904142257 28 220 0.0 0.0 0.00 0.00 0.00 64 1011.2
20260904141752 28 200 0.0 0.0 0.00 0.00 0.00 64 1011.1
20260904141248 27 229 0.0 0.0 0.00 0.00 0.00 68 1011.1
20260904140743 27 176 0.0 0.0 0.00 0.00 0.00 68 1011.0
20260904140238 27 216 0.0 0.0 0.00 0.00 0.00 69 1011.1
20260904135737 27 92 0.0 0.0 0.00 0.00 0.00 69 1011.2
20260904135232 27 238 0.0 0.0 0.00 0.00 0.00 70 1010.9
20260904134728 27 186 0.0 0.0 0.00 0.00 0.00 70 1010.8
20260904134228 27 209 0.0 0.0 0.00 0.00 0.00 70 1010.8
20260904133722 27 161 0.0 0.0 0.00 0.00 0.00 70 1010.8
20260904133219 26 161 0.0 0.0 0.00 0.00 0.00 72 1010.8
20260904132718 27 230 0.0 0.0 0.00 0.00 0.00 71 1010.7
20260904132214 26 219 0.0 0.0 0.00 0.00 0.00 71 1010.8
20260904131713 26 212 0.0 0.0 0.00 0.00 0.00 73 1010.8
20260904131208 26 207 0.0 0.0 0.00 0.00 0.00 74 1010.8
20260904130703 26 303 0.0 0.0 0.00 0.00 0.00 74 1010.9
20260904130202 26 194 0.0 0.0 0.00 0.00 0.00 75 1010.9
20260904125659 26 232 0.0 0.0 0.00 0.00 0.00 76 1010.7
20260904125154 26 186 0.0 0.0 0.00 0.00 0.00 76 1010.7
20260904124649 26 217 0.0 0.0 0.00 0.00 0.00 77 1010.8
20260904124144 26 250 0.0 0.0 0.00 0.00 0.00 77 1010.6
20260904123638 26 217 0.0 0.0 0.00 0.00 0.00 78 1010.7
20260904123135 26 237 0.0 0.0 0.00 0.00 0.00 78 1010.7
20260904122629 25 173 0.0 0.0 0.00 0.00 0.00 79 1010.6
20260904122124 25 214 0.0 0.0 0.00 0.00 0.00 81 1010.7
20260904121619 25 137 0.0 0.0 0.00 0.00 0.00 82 1010.7
20260904121115 25 181 0.0 0.0 0.00 0.00 0.00 83 1010.7
20260904120611 25 204 0.0 0.0 0.00 0.00 0.00 84 1010.5
20260904120107 25 172 0.0 0.0 0.00 0.00 0.00 85 1010.4
20260904115602 25 224 0.0 0.0 0.00 0.00 0.00 86 1010.5
20260904115057 24 200 0.0 0.0 0.00 0.00 0.00 87 1010.6
20260904114556 24 170 0.0 0.0 0.00 0.00 0.00 88 1010.8
20260904114056 24 191 0.0 0.0 0.00 0.00 0.00 88 1010.7
20260904113551 24 138 0.0 0.0 0.00 0.00 0.00 89 1010.6
20260904113050 24 168 0.0 0.0 0.00 0.00 0.00 89 1010.4
20260904112546 23 174 0.0 0.0 0.00 0.00 0.00 90 1010.6
20260904112042 23 165 0.0 0.0 0.00 0.00 0.00 90 1010.3
20260904111537 23 173 0.0 0.0 0.00 0.00 0.00 90 1010.3
20260904111032 23 145 0.0 0.0 0.00 0.00 0.00 90 1010.4
20260904110526 23 119 0.0 0.0 0.00 0.00 0.00 90 1010.3
20260904110022 23 59 0.0 0.0 0.00 0.00 0.00 90 1010.2
20260904105516 23 121 0.0 0.0 0.00 0.00 0.00 90 1010.3
20260904105012 23 167 0.0 0.0 0.00 0.00 0.00 91 1010.0
20260904104507 23 198 0.0 0.0 0.00 0.00 0.00 91 1010.1
20260904104002 23 211 0.0 0.0 0.00 0.00 0.00 90 1010.2
20260904103458 23 216 0.0 0.0 0.00 0.00 0.00 90 1010.2
20260904102954 23 184 0.0 0.0 0.00 0.00 0.00 90 1009.9
20260904102449 23 156 0.0 0.0 0.00 0.00 0.00 90 1010.1
20260904101944 23 187 0.0 0.0 0.00 0.00 0.00 90 1010.1
20260904101441 23 174 0.0 0.0 0.00 0.00 0.00 89 1009.8
20260904100937 23 191 0.0 0.0 0.00 0.00 0.00 89 1010.1
20260904100432 23 189 0.0 0.0 0.00 0.00 0.00 89 1009.9
20260904095926 23 167 0.0 0.0 0.00 0.00 0.00 89 1010.1
20260904095421 23 169 0.0 0.0 0.00 0.00 0.00 90 1009.7
20260904094916 23 175 0.0 0.0 0.00 0.00 0.00 89 1009.8
20260904094411 23 120 0.0 0.0 0.00 0.00 0.00 89 1009.8
20260904093908 23 106 0.0 0.0 0.00 0.00 0.00 88 1009.9
20260904093407 23 123 0.0 0.0 0.00 0.00 0.00 88 1009.8
20260904092857 23 154 0.0 0.0 0.00 0.00 0.00 88 1009.6
20260904092354 23 185 0.0 0.0 0.00 0.00 0.00 87 1009.6
20260904091850 23 103 0.0 0.0 0.00 0.00 0.00 87 1009.8
20260904091345 23 64 0.0 0.0 0.00 0.00 0.00 87 1009.9
20260904090839 23 163 0.0 0.0 0.00 0.00 0.00 87 1009.8
20260904090336 24 112 0.0 0.0 0.00 0.00 0.00 87 1009.8
20260904085830 24 132 0.0 0.0 0.00 0.00 0.00 86 1009.6
20260904085326 24 175 0.0 0.0 0.00 0.00 0.00 86 1009.7
20260904084826 24 145 0.0 0.0 0.00 0.00 0.00 86 1009.9
20260904084322 24 183 0.0 0.0 0.00 0.00 0.00 86 1009.9
20260904083818 24 183 0.0 0.0 0.00 0.00 0.00 86 1009.8
20260904083314 24 161 0.0 0.0 0.00 0.00 0.00 86 1010.1
20260904082809 24 164 0.0 0.0 0.00 0.00 0.00 86 1009.9
20260904082305 24 147 0.0 0.0 0.00 0.00 0.00 87 1009.6
20260904081759 24 188 0.0 0.0 0.00 0.00 0.00 87 1010.1
20260904081254 24 182 0.0 0.0 0.00 0.00 0.00 87 1009.8
20260904080750 24 159 0.0 0.0 0.00 0.00 0.00 86 1009.8
20260904080246 24 123 0.0 0.0 0.00 0.00 0.00 86 1010.0
20260904075742 25 157 0.0 0.0 0.00 0.00 0.00 85 1009.9
20260904075237 25 159 0.0 0.0 0.00 0.00 0.00 85 1009.7
20260904074736 25 119 0.0 0.0 0.00 0.00 0.00 85 1010.0
20260904074230 25 127 0.0 0.0 0.00 0.00 0.00 85 1009.9
20260904073725 25 169 0.0 0.0 0.00 0.00 0.00 84 1009.7
20260904073216 25 165 0.0 0.0 0.00 0.00 0.00 84 1009.3
20260904072712 25 191 0.0 0.0 0.00 0.00 0.00 84 1009.5
20260904072206 25 128 0.0 0.0 0.00 0.00 0.00 83 1009.1
20260904071702 25 107 0.0 0.0 0.00 0.00 0.00 83 1009.1
20260904071157 25 106 0.0 0.0 0.00 0.00 0.00 83 1009.2
20260904070656 25 181 0.0 0.0 0.00 0.00 0.00 83 1009.4
20260904070155 25 120 0.0 0.0 0.00 0.00 0.00 83 1009.4
20260904065650 25 135 0.0 0.0 0.00 0.00 0.00 83 1009.5
20260904065147 25 150 0.0 0.0 0.00 0.00 0.00 84 1009.5
20260904064636 25 178 0.0 0.0 0.00 0.00 0.00 84 1009.5
20260904064131 26 181 0.0 0.0 0.00 0.00 0.00 83 1009.8
20260904063627 26 148 0.0 0.0 0.00 0.00 0.00 81 1010.1
20260904063122 26 166 0.0 0.0 0.00 0.00 0.00 80 1009.9
20260904062619 26 175 0.0 0.0 0.00 0.00 0.00 81 1010.2
20260904062114 26 186 0.0 0.0 0.00 0.00 0.00 84 1010.1
20260904061609 26 168 0.0 0.0 0.00 0.00 0.00 87 1009.9
20260904061106 26 38 0.0 0.0 0.00 0.00 0.00 87 1010.3
20260904060602 26 137 0.0 0.0 0.00 0.00 0.00 87 1010.1
20260904060057 26 149 0.0 0.0 0.00 0.00 0.00 86 1010.2
20260904055552 26 181 0.0 0.0 0.00 0.00 0.00 85 1009.9
20260904055047 26 323 0.0 0.0 0.00 0.00 0.00 84 1010.0
20260904054543 26 141 0.0 0.0 0.00 0.00 0.00 84 1010.1
20260904054039 26 122 0.0 0.0 0.00 0.00 0.00 84 1010.4
20260904053538 26 110 0.0 0.0 0.00 0.00 0.00 84 1010.6
20260904053034 26 87 0.0 0.0 0.00 0.00 0.00 84 1010.6
20260904052530 26 118 0.0 0.0 0.00 0.00 0.00 84 1010.6
20260904052026 26 88 0.0 0.0 0.00 0.00 0.00 84 1010.6
20260904051522 26 93 0.0 0.0 0.00 0.00 0.00 84 1010.8
20260904051021 26 101 0.0 0.0 0.00 0.00 0.00 84 1010.5
20260904050518 26 126 0.0 0.0 0.00 0.00 0.00 84 1010.5
20260904050013 26 98 0.0 0.0 0.00 0.00 0.00 84 1010.7
20260904045508 26 65 0.0 0.0 0.00 0.00 0.00 84 1010.7
20260904045003 26 68 0.0 0.0 0.00 0.00 0.00 83 1010.8
20260904044459 26 120 0.0 0.0 0.00 0.00 0.00 83 1010.8
20260904043955 26 106 0.0 0.0 0.00 0.00 0.00 84 1011.0
20260904043451 26 144 0.0 0.0 0.00 0.00 0.00 84 1011.1
20260904042946 26 109 0.0 0.0 0.00 0.00 0.00 83 1011.0
20260904042442 26 100 0.0 0.0 0.00 0.00 0.00 83 1011.3
20260904041936 26 96 0.0 0.0 0.00 0.00 0.00 83 1011.3
20260904041428 26 116 0.0 0.0 0.00 0.00 0.00 83 1011.4
20260904040924 26 143 0.0 0.0 0.00 0.00 0.00 83 1011.5
20260904040423 26 86 0.0 0.0 0.00 0.00 0.00 83 1011.4
20260904035920 26 75 0.0 0.0 0.00 0.00 0.00 83 1011.4
20260904035415 27 132 0.0 0.0 0.00 0.00 0.00 82 1011.2
20260904034915 27 118 0.0 0.0 0.00 0.00 0.00 81 1011.5
20260904034410 27 111 0.0 0.0 0.00 0.00 0.00 81 1011.6
20260904033906 27 69 0.0 0.0 0.00 0.00 0.00 80 1011.4
20260904033402 27 66 0.0 0.0 0.00 0.00 0.00 80 1011.1
20260904032857 27 96 0.0 0.0 0.00 0.00 0.00 80 1011.3
20260904032352 27 123 0.0 0.0 0.00 0.00 0.00 79 1011.0
20260904031846 27 112 0.0 0.0 0.00 0.00 0.00 79 1011.3
20260904031342 27 75 0.0 0.0 0.00 0.00 0.00 78 1011.0
20260904030838 27 54 0.0 0.0 0.00 0.00 0.00 78 1011.2
20260904030333 27 91 0.0 0.0 0.00 0.00 0.00 78 1011.4
20260904025829 27 98 0.0 0.0 0.00 0.48 0.48 77 1011.5
20260904025325 27 4 0.0 0.0 0.00 0.48 0.48 77 1011.7
20260904024824 27 120 0.0 0.0 0.00 0.48 0.48 78 1011.6
20260904024319 27 114 0.0 0.0 0.00 0.48 0.48 78 1011.4
20260904023816 27 49 0.0 0.0 0.00 0.48 0.48 78 1011.6
20260904023312 27 78 0.0 0.0 0.00 0.48 0.48 78 1011.7
20260904022811 27 88 0.0 0.0 0.00 0.48 0.48 78 1011.5
20260904022308 27 76 0.0 0.0 0.00 0.48 0.48 78 1011.6
20260904021805 27 53 0.0 0.0 0.00 0.48 0.48 77 1011.8
20260904021259 27 102 0.0 0.0 0.00 0.48 0.48 76 1012.0
20260904020754 27 80 0.0 0.0 0.00 0.48 0.48 76 1012.2
20260904020254 27 124 0.0 0.0 0.00 0.48 0.48 76 1012.1
20260904015753 27 101 0.0 0.0 0.00 0.48 0.48 76 1012.1
20260904015248 27 125 0.0 0.0 0.00 0.48 0.48 76 1012.3
20260904014746 27 115 0.0 0.0 0.00 0.48 0.48 77 1012.2
20260904014242 27 120 0.0 0.0 0.00 0.48 0.48 77 1012.3
20260904013738 27 107 0.0 0.0 0.00 0.48 0.48 78 1012.2
20260904013234 27 104 0.0 0.0 0.00 0.48 0.48 78 1012.1
20260904012730 27 80 0.0 0.0 0.00 0.48 0.48 77 1012.2
20260904012229 27 87 0.0 0.0 0.00 0.48 0.48 76 1012.1
20260904011728 27 96 0.0 0.0 0.00 0.48 0.48 75 1011.9
20260904011224 27 89 0.0 0.0 0.00 0.48 0.48 74 1012.2
20260904010719 27 77 0.0 0.0 0.00 0.48 0.48 74 1011.7
20260904010215 27 109 0.0 0.0 0.00 0.48 0.48 75 1011.9
20260904005710 27 106 0.0 0.0 0.00 0.48 0.48 74 1011.9
20260904005207 27 96 0.0 0.0 0.00 0.48 0.48 74 1012.2
20260904004706 27 74 0.0 0.0 0.00 0.48 0.48 74 1011.7
20260904004201 27 99 0.0 0.0 0.00 0.48 0.48 74 1011.6
20260904003656 27 80 0.0 0.0 0.00 0.48 0.48 73 1011.6
20260904003153 28 101 0.0 0.0 0.00 0.48 0.48 73 1012.1
20260904002648 28 76 0.0 0.0 0.00 0.48 0.48 72 1012.0
20260904002143 28 94 0.0 0.0 0.00 0.48 0.48 71 1012.0
20260904001639 28 104 0.0 0.0 0.00 0.48 0.48 71 1011.9
20260904001137 28 96 0.0 0.0 0.00 0.48 0.48 70 1011.9
20260904000633 28 125 0.0 0.0 0.00 0.48 0.48 70 1011.8
20260904000128 28 101 0.0 0.0 0.00 0.48 0.48 70 1011.7
20260903235628 28 125 0.0 0.0 0.00 0.48 0.48 71 1011.5
20260903235124 28 118 0.0 0.0 0.00 0.48 0.48 70 1011.5
20260903234619 28 89 0.0 0.0 0.00 0.48 0.48 70 1011.3
20260903234115 28 115 0.0 0.0 0.00 0.48 0.48 69 1011.3
20260903233611 28 116 0.0 0.0 0.00 0.48 0.48 70 1011.4
20260903233106 28 107 0.0 0.0 0.00 0.48 0.48 70 1011.3
20260903232601 29 104 0.0 0.0 0.00 0.48 0.48 69 1011.3
20260903232056 29 98 0.0 0.0 0.00 0.48 0.48 68 1011.2
20260903231545 29 128 0.0 0.0 0.00 0.48 0.48 68 1011.3
20260903231045 29 139 0.0 0.0 0.00 0.48 0.48 67 1011.2
20260903230541 29 52 0.0 0.0 0.00 0.48 0.48 67 1011.5
20260903230039 29 186 0.0 0.0 0.00 0.48 0.48 67 1011.3
20260903225537 30 131 0.0 0.0 0.00 0.48 0.48 67 1011.4
20260903225033 30 125 0.0 0.0 0.00 0.48 0.48 66 1011.6
20260903224524 30 94 0.0 0.0 0.00 0.48 0.48 66 1011.5
20260903224020 30 147 0.0 0.0 0.00 0.48 0.48 66 1011.5
20260903223519 30 97 0.0 0.0 0.00 0.48 0.48 67 1011.4
20260903223018 30 115 0.0 0.0 0.00 0.48 0.48 67 1011.6
20260903222514 30 129 0.0 0.0 0.00 0.48 0.48 67 1011.6
20260903222012 30 139 0.0 0.0 0.00 0.48 0.48 67 1011.5
20260903221508 30 90 0.0 0.0 0.00 0.48 0.48 65 1011.5
20260903221005 30 115 0.0 0.0 0.00 0.48 0.48 65 1011.5
20260903220505 30 178 0.0 0.0 0.00 0.48 0.48 64 1011.3
20260903220003 30 102 0.0 0.0 0.00 0.48 0.48 65 1011.4
20260903215459 30 123 0.0 0.0 0.00 0.48 0.48 65 1011.3
20260903214957 30 159 0.0 0.0 0.00 0.48 0.48 64 1011.3
20260903214452 30 113 0.0 0.0 0.00 0.48 0.48 64 1011.2